Location: Lamy Ridge Observatory
(35.5010°N, 105.8759°W)
Time: 10:05:28
(UTC-06:00)

Tiangong - Visible Passes

Search period start: 08 September 2024 00:00
Search period end: 18 September 2024 00:00
Orbit: 376 x 378 km, 41.5° (Epoch: 08 September)

Date Brightness Start Highest point End Pass type
(mag) Time Alt. Az. Time Alt. Az. Time Alt. Az.
08 Sep 0.5 04:29:54 21° NE 04:29:54 21° NE 04:31:19 10° ENE visible
08 Sep -2.3 06:02:18 10° WNW 06:05:24 80° SSW 06:08:30 10° ESE visible
09 Sep -1.7 05:03:15 56° NNE 05:03:18 56° NNE 05:06:22 10° E visible
10 Sep -1.8 05:36:38 31° W 05:37:42 45° SSW 05:40:41 10° SE visible
11 Sep 0.7 04:38:00 14° ESE 04:38:00 14° ESE 04:38:30 10° ESE visible
11 Sep -0.1 06:10:09 10° WSW 06:11:42 13° SW 06:13:15 10° S visible
12 Sep 0.3 05:11:30 13° SSE 05:11:30 13° SSE 05:12:03 10° SSE visible
15 Sep -0.5 20:05:40 10° S 20:07:51 18° SE 20:08:01 18° SE visible
16 Sep -1.7 20:38:05 10° SW 20:40:34 49° SSW 20:40:34 49° SSW visible
17 Sep -1.1 19:35:17 10° SSW 19:38:00 29° SSE 19:40:46 10° E visible
17 Sep 0.4 21:11:31 10° W 21:12:47 21° W 21:12:47 21° W visible
